Weather in Verkhosunye

Russia / Kirov Oblast     58°01′22″N   51°19′55″E
temp.,
°C
wind,
m/s
gust,
m/s
humid.,
%
clouds,
%
prec.,
mm/h
press.,
hPa
HPBL,
m
22 january, sat
sat2200:00−14sse41096100 0.0 1021185
03:00−14sse51296100 0.0 1021222
06:00−14se51196100 0.0 1022205
09:00−14sse51296100 0.0 1023236
12:00−11se51194100 0.0 1023296
15:00−10se5119399 0.0 1024288
18:00−10se5129389 0.0 1025330
21:00−11se51194100 0.1 1026267
23 january, sun
sun2300:00−10se51095100 0.0 1026246
03:00−7se61394100 0.9 1026455
06:00−7sse61294100 0.5 1027512
09:00−7s51193100 0.6 1029419
12:00−6s5894100 0.1 1030466
15:00−6s4795100 0.1 1032279
18:00−8s3797100 0.0 1034141
21:00−9ssw2498100 0.1 103567
24 january, mon
mon2400:00−12sw229993 0.1 103631
03:00−15sw22100100 0.1 103811
06:00−18wsw22100100 0.0 10389
09:00−17w22100100 0.1 104020
12:00−10w239691 0.0 1039136
15:00−12wsw229754 0.0 103910
18:00−16sw3410080 0.0 103937
21:00−17sw34100100 0.0 103843
25 january, tue
tue2500:00−17sw34100100 0.0 103750
03:00−18sw33100100 0.1 103636
06:00−18ssw34100100 0.0 103547
09:00−17ssw36100100 0.1 103484
12:00−10ssw36886 0.0 1032188
15:00−11s36945 0.0 1031110
18:00−14s4109743 0.0 1030138
21:00−16ssw4109122 0.0 1030134
26 january, wed
wed2600:00−17ssw499364 0.0 1029125
03:00−17s4109576 0.0 1028131
06:00−18s499847 0.0 1028120
09:00−17s499990 0.0 1028153
12:00−12s4795100 0.0 1027231
15:00−11s479694 0.1 1027198
18:00−13s4119793 0.0 1027212
21:00−14s41097100 0.1 1027213